Weather History for Omaha Millard, NE

Change the Weather History Date:

Sunday, February 16, 2014

  Actual Average (KOMA) Record (KOMA)
Temperature  
Mean Temperature 28 °F 28 °F  
Max Temperature 33 °F 38 °F 66 °F (1981)
Min Temperature 23 °F 18 °F -17 °F (1979)
Degree Days  
Heating Degree Days 37 37  
Month to date heating degree days 620  
Since 1 July heating degree days 4385  
Cooling Degree Days 0 0  
Month to date cooling degree days 0  
Year to date cooling degree days 0  
Moisture  
Dew Point 23 °F    
Average Humidity 78    
Maximum Humidity 84    
Minimum Humidity 71    
Precipitation  
Precipitation 0.00 in 0.03 in 0.48 in (1932)
Month to date precipitation 0.44  
Year to date precipitation 1.16  
Snow  
Snow 0.00 in 0.20 in - ()
Month to date snowfall 3.7  
Since 1 July snowfall 18.8  
Snow Depth -    
Sea Level Pressure  
Sea Level Pressure 30.04 in    
Wind  
Wind Speed 6 mph (ESE)    
Max Wind Speed 17 mph    
Max Gust Speed 23 mph    
Visibility 9 miles    
Events      
T = Trace of Precipitation, MM = Missing Value Source: NWS Daily Summary

Daily Weather History Graph

Daily Weather History Graph

Search for Another Location

Airport:

Trip Planner

Search our weather history database for the weather conditions in past years. The results will help you decide how hot, cold, wet, or windy it might be!

Date:

Astronomy

Feb. 16, 2014 Rise Set
Actual Time 7:17 AM CST 5:59 PM CST
Civil Twilight 6:49 AM CST 6:28 PM CST
Nautical Twilight 6:17 AM CST 7:00 PM CST
Astronomical Twilight 5:45 AM CST 7:32 PM CST
Moon 7:59 PM CST (2/16) 7:46 AM CST (2/16)
Length of Visible Light 11h 38m
Length of Day
10h 42m
Full, 97% of the Moon is Illuminated
Feb 16
Full
Feb 22
Last Quarter
Mar 1
New
Mar 8
First Quarter
Mar 16
Full

Hourly Weather History & Observations

Time (CST) Temp. Windchill Dew Point Humidity Pressure Visibility Wind Dir Wind Speed Gust Speed Precip Events Conditions
12:15 AM 32.0 °F 28.7 °F 25.5 °F 77% 30.08 in 10.0 mi NW 3.5 mph - N/A   Mostly Cloudy
12:35 AM 31.8 °F - 25.5 °F 78% 30.07 in 10.0 mi Calm Calm - N/A   Overcast
12:55 AM 31.5 °F 24.9 °F 25.0 °F 77% 30.09 in 10.0 mi North 6.9 mph - N/A   Overcast
1:15 AM 31.1 °F - 24.8 °F 77% 30.09 in 10.0 mi Calm Calm - N/A   Overcast
1:35 AM 30.9 °F 23.5 °F 24.8 °F 78% 30.11 in 10.0 mi NW 8.1 mph - N/A   Overcast
1:55 AM 30.2 °F 25.4 °F 23.9 °F 77% 30.12 in 10.0 mi North 4.6 mph - N/A   Overcast
2:15 AM 29.8 °F 26.3 °F 23.7 °F 78% 30.12 in 10.0 mi NNW 3.5 mph - N/A   Overcast
2:35 AM 29.3 °F 25.6 °F 23.9 °F 80% 30.12 in 10.0 mi NNW 3.5 mph - N/A   Overcast
2:55 AM 28.8 °F 25.0 °F 23.0 °F 79% 30.13 in 10.0 mi NNW 3.5 mph - N/A   Overcast
3:15 AM 28.2 °F 23.1 °F 22.8 °F 80% 30.12 in 10.0 mi NNW 4.6 mph - N/A   Overcast
3:35 AM 27.9 °F - 22.6 °F 81% 30.12 in 10.0 mi Calm Calm - N/A   Overcast
3:55 AM 27.5 °F 20.2 °F 22.5 °F 81% 30.12 in 10.0 mi NNW 6.9 mph - N/A   Overcast
4:15 AM 27.1 °F 21.8 °F 22.1 °F 81% 30.13 in 10.0 mi NW 4.6 mph - N/A   Overcast
4:35 AM 26.4 °F 19.8 °F 21.6 °F 82% 30.12 in 10.0 mi NW 5.8 mph - N/A   Overcast
4:55 AM 26.2 °F 17.8 °F 21.4 °F 82% 30.13 in 10.0 mi NW 8.1 mph - N/A   Overcast
5:15 AM 25.7 °F 21.5 °F 21.2 °F 83% 30.13 in 10.0 mi North 3.5 mph - N/A   Overcast
5:35 AM 25.5 °F 17.8 °F 21.0 °F 83% 30.14 in 10.0 mi NW 6.9 mph - N/A   Overcast
5:55 AM 25.0 °F 19.3 °F 20.7 °F 84% 30.13 in 7.0 mi NNW 4.6 mph - N/A   Overcast
6:15 AM 25.2 °F 20.9 °F 20.7 °F 83% 30.14 in 7.0 mi NNW 3.5 mph - N/A   Overcast
6:35 AM 24.6 °F 18.8 °F 20.1 °F 83% 30.15 in 10.0 mi North 4.6 mph - N/A   Overcast
6:55 AM 23.9 °F 19.5 °F 19.4 °F 83% 30.14 in 10.0 mi North 3.5 mph - N/A   Overcast
7:15 AM 23.7 °F 19.3 °F 19.4 °F 84% 30.13 in 10.0 mi NNE 3.5 mph - N/A   Overcast
7:35 AM 23.7 °F - 19.2 °F 83% 30.14 in 10.0 mi Calm Calm - N/A   Overcast
7:55 AM 23.7 °F - 18.9 °F 82% 30.14 in 10.0 mi Calm Calm - N/A   Overcast
8:15 AM 23.7 °F 17.8 °F 18.9 °F 82% 30.15 in 10.0 mi ENE 4.6 mph - N/A   Overcast
8:35 AM 23.5 °F 19.1 °F 18.5 °F 81% 30.16 in 7.0 mi East 3.5 mph - N/A   Overcast
8:55 AM 23.9 °F - 18.7 °F 80% 30.16 in 5.0 mi Calm Calm - N/A   Haze
9:15 AM 23.9 °F - 18.7 °F 80% 30.17 in 5.0 mi Calm Calm - N/A   Haze
9:35 AM 24.6 °F 20.3 °F 19.0 °F 79% 30.16 in 5.0 mi ENE 3.5 mph - N/A   Haze
9:55 AM 24.6 °F - 19.0 °F 79% 30.16 in 5.0 mi Calm Calm - N/A   Haze
10:15 AM 24.4 °F 18.6 °F 19.0 °F 80% 30.15 in 7.0 mi East 4.6 mph - N/A   Overcast
10:35 AM 23.9 °F 15.0 °F 18.9 °F 81% 30.15 in 5.0 mi ESE 8.1 mph - N/A   Haze
10:55 AM 24.4 °F 15.6 °F 18.5 °F 78% 30.14 in 7.0 mi SE 8.1 mph - N/A   Overcast
11:15 AM 26.1 °F 18.4 °F 18.9 °F 74% 30.13 in 10.0 mi ESE 6.9 mph 11.5 mph N/A   Overcast
11:35 AM 27.3 °F 17.1 °F 19.6 °F 73% 30.11 in 10.0 mi SE 11.5 mph - N/A   Overcast
11:55 AM 27.7 °F 18.2 °F 20.1 °F 73% 30.11 in 10.0 mi SE 10.4 mph - N/A   Overcast
12:15 PM 27.9 °F 17.8 °F 20.7 °F 74% 30.11 in 10.0 mi SE 11.5 mph - N/A   Overcast
12:35 PM 28.4 °F 19.1 °F 21.2 °F 74% 30.10 in 10.0 mi SE 10.4 mph - N/A   Overcast
12:55 PM 28.6 °F 18.2 °F 21.4 °F 74% 30.08 in 10.0 mi SSE 12.7 mph 16.1 mph N/A   Overcast
1:15 PM 29.1 °F 18.9 °F 21.9 °F 74% 30.06 in 10.0 mi SE 12.7 mph 18.4 mph N/A   Overcast
1:35 PM 30.2 °F 19.8 °F 22.6 °F 73% 30.06 in 10.0 mi SE 13.8 mph 17.3 mph N/A   Overcast
1:55 PM 30.2 °F 21.9 °F 23.0 °F 75% 30.05 in 10.0 mi SE 9.2 mph - N/A   Overcast
2:15 PM 31.6 °F 23.1 °F 23.5 °F 72% 30.02 in 10.0 mi ESE 10.4 mph 16.1 mph N/A   Overcast
2:35 PM 32.0 °F 23.6 °F 23.7 °F 71% 30.01 in 10.0 mi ESE 10.4 mph 17.3 mph N/A   Overcast
2:55 PM 32.0 °F 23.6 °F 24.3 °F 73% 29.99 in 10.0 mi ESE 10.4 mph - N/A   Scattered Clouds
3:15 PM 32.2 °F 23.8 °F 24.8 °F 74% 29.98 in 10.0 mi SE 10.4 mph - N/A   Clear
3:35 PM 32.9 °F 22.8 °F 25.5 °F 74% 29.98 in 10.0 mi ESE 15.0 mph - N/A   Scattered Clouds
3:55 PM 33.3 °F 22.8 °F 25.7 °F 74% 29.97 in 10.0 mi SE 16.1 mph 19.6 mph N/A   Scattered Clouds
4:15 PM 33.8 °F 23.2 °F 25.7 °F 72% 29.96 in 10.0 mi SE 17.3 mph 23.0 mph N/A   Scattered Clouds
4:35 PM 33.3 °F 23.2 °F 25.5 °F 73% 29.95 in 10.0 mi SE 15.0 mph 23.0 mph N/A   Scattered Clouds
4:55 PM 33.4 °F 24.3 °F 25.7 °F 73% 29.95 in 10.0 mi SE 12.7 mph - N/A   Scattered Clouds
5:15 PM 32.5 °F 22.7 °F 25.7 °F 76% 29.94 in 10.0 mi SE 13.8 mph 18.4 mph N/A   Scattered Clouds
5:35 PM 32.0 °F 22.1 °F 25.7 °F 78% 29.93 in 10.0 mi SE 13.8 mph - N/A   Clear
5:55 PM 32.0 °F 21.2 °F 25.7 °F 78% 29.93 in 10.0 mi SE 16.1 mph - N/A   Clear
6:15 PM 32.0 °F 23.0 °F 25.5 °F 77% 29.94 in 10.0 mi SE 11.5 mph 17.3 mph N/A   Clear
6:35 PM 31.8 °F 23.3 °F 25.7 °F 78% 29.94 in 10.0 mi ESE 10.4 mph 17.3 mph N/A   Scattered Clouds
6:55 PM 31.5 °F 21.4 °F 25.5 °F 79% 29.95 in 10.0 mi SE 13.8 mph - N/A   Scattered Clouds
7:15 PM 31.1 °F 23.7 °F 25.3 °F 79% 29.94 in 10.0 mi SE 8.1 mph 17.3 mph N/A   Mostly Cloudy
7:35 PM 31.1 °F 21.9 °F 25.3 °F 79% 29.93 in 10.0 mi SE 11.5 mph 17.3 mph N/A   Scattered Clouds
7:55 PM 30.9 °F 21.2 °F 25.0 °F 79% 29.93 in 10.0 mi SE 12.7 mph - N/A   Clear
8:15 PM 30.9 °F 21.7 °F 25.2 °F 79% 29.92 in 10.0 mi SE 11.5 mph - N/A   Clear
8:35 PM 30.9 °F 22.2 °F 25.2 °F 79% 29.92 in 10.0 mi SE 10.4 mph - N/A   Clear
8:55 PM 30.9 °F 20.2 °F 25.3 °F 80% 29.90 in 10.0 mi SE 15.0 mph 18.4 mph N/A   Scattered Clouds
9:15 PM 31.1 °F 20.9 °F 24.8 °F 77% 29.90 in 10.0 mi SE 13.8 mph 20.7 mph N/A   Scattered Clouds
9:35 PM 30.9 °F 21.2 °F 24.6 °F 77% 29.90 in 10.0 mi SE 12.7 mph 17.3 mph N/A   Scattered Clouds
9:55 PM 30.7 °F 21.4 °F 24.6 °F 78% 29.89 in 10.0 mi SE 11.5 mph - N/A   Scattered Clouds
10:15 PM 30.6 °F 20.7 °F 24.3 °F 77% 29.88 in 10.0 mi SE 12.7 mph 19.6 mph N/A   Clear
10:35 PM 30.4 °F 22.9 °F 24.3 °F 78% 29.88 in 10.0 mi SE 8.1 mph - N/A   Clear
10:55 PM 30.2 °F 19.3 °F 24.3 °F 79% 29.86 in 10.0 mi SE 15.0 mph - N/A   Clear
11:15 PM 30.2 °F 21.9 °F 24.3 °F 79% 29.86 in 10.0 mi SE 9.2 mph - N/A   Clear
11:35 PM 30.2 °F 20.8 °F 24.4 °F 79% 29.86 in 10.0 mi SE 11.5 mph - N/A   Clear
11:55 PM 30.2 °F 24.3 °F 24.4 °F 79% 29.87 in 10.0 mi SE 5.8 mph - N/A   Scattered Clouds